Date String (YYYY-MM-DD hh:mm:ss) UTC,Instrument flags,Ambient pressure (hPa),Sample flow (lpm),Bypass flow (lpm),Sample temperature (°C),Ambient temperature (°C),ASC tube jacket temperature (°C),LED temperature (°C),Box temperature (°C),Sample RH (%),Span deviation,Mass concentration (μg/m³),Mass concentration (μg/m³),Mass concentration (μg/m³)
DateTimeUTC,F1_M11,P_M11,Q1_M11,Q2_M11,T1_M11,T2_M11,T3_M11,T4_M11,T5_M11,U1_M11,ZSPAN_M11,X0_M11,X2_M11,X1_M11
2022-10-11 11:00:00,,0820.8,5.00,0.00,29.1,27.5,00.0,38.0,30.9,10.6,0000.0,0009.39,0005.29,0004.70
2022-10-11 11:01:00,,0820.8,4.99,0.00,29.1,27.5,00.0,37.9,30.9,10.7,0000.0,0009.74,0005.33,0004.70
2022-10-11 11:02:00,,0820.8,5.02,0.00,29.1,27.4,00.0,37.9,30.9,10.6,0000.0,0009.94,0005.34,0004.71
2022-10-11 11:03:00,,0820.9,5.00,0.00,29.1,27.4,00.0,37.9,30.9,10.6,0000.0,0009.73,0005.34,0004.69
2022-10-11 11:04:00,,0820.8,5.00,0.00,29.1,27.4,00.0,37.9,30.8,10.6,0000.0,0009.60,0005.32,0004.68
2022-10-11 11:05:00,,0820.8,5.00,0.00,29.1,27.4,00.0,37.9,30.9,10.6,0000.0,0009.42,0005.31,0004.66
2022-10-11 11:06:00,,0820.9,5.02,0.00,29.1,27.4,00.0,37.9,30.8,10.6,0000.0,0009.37,0005.33,0004.66
2022-10-11 11:07:00,,0820.9,5.00,0.00,29.1,27.4,00.0,37.9,30.8,10.6,0000.0,0009.45,0005.33,0004.67
2022-10-11 11:08:00,,0820.9,4.99,0.00,29.0,27.4,00.0,37.9,30.8,10.7,0000.0,0009.53,0005.36,0004.67
2022-10-11 11:09:00,,0820.9,5.01,0.00,29.0,27.4,00.0,37.9,30.8,10.7,0000.0,0009.41,0005.30,0004.66
2022-10-11 11:10:00,,0820.9,5.01,0.00,29.0,27.4,00.0,37.9,30.8,10.5,0000.0,0009.39,0005.28,0004.64
2022-10-11 11:11:00,,0820.8,5.00,0.00,29.0,27.4,00.0,37.9,30.8,10.5,0000.0,0009.15,0005.26,0004.61
2022-10-11 11:12:00,,0820.7,4.99,0.00,29.0,27.4,00.0,37.9,30.8,10.6,0000.0,0008.90,0005.23,0004.60
2022-10-11 11:13:00,,0820.7,5.01,0.00,29.0,27.4,00.0,37.9,30.8,10.6,0000.0,0008.77,0005.17,0004.58
2022-10-11 11:14:00,,0820.7,5.00,0.00,29.0,27.4,00.0,37.9,30.8,10.4,0000.0,0008.87,0005.16,0004.57
2022-10-11 11:15:00,,0820.8,5.00,0.00,29.0,27.4,00.0,37.9,30.8,10.4,0000.0,0008.95,0005.15,0004.57
2022-10-11 11:16:00,,0820.8,4.99,0.00,29.0,27.4,00.0,37.9,30.8,10.4,0000.0,0009.10,0005.14,0004.56
2022-10-11 11:17:00,,0820.7,5.00,0.00,29.0,27.4,00.0,37.9,30.8,10.5,0000.0,0008.98,0005.13,0004.55
2022-10-11 11:18:00,,0820.6,5.01,0.00,29.0,27.4,00.0,37.8,30.8,10.5,0000.0,0008.70,0005.10,0004.54
2022-10-11 11:19:00,,0820.6,5.00,0.00,29.0,27.4,00.0,37.8,30.8,10.5,0000.0,0008.93,0005.05,0004.54
2022-10-11 11:20:00,,0820.7,4.99,0.00,29.0,27.3,00.0,37.8,30.8,10.4,0000.0,0009.46,0005.02,0004.52
2022-10-11 11:21:00,,0820.7,5.00,0.00,29.0,27.3,00.0,37.8,30.8,10.3,0000.0,0009.67,0005.01,0004.52
2022-10-11 11:22:00,,0820.7,5.01,0.00,29.0,27.4,00.0,37.8,30.8,10.4,0000.0,0010.61,0004.98,0004.53
2022-10-11 11:23:00,,0820.7,5.00,0.00,29.0,27.4,00.0,37.8,30.8,10.4,0000.0,0011.00,0004.98,0004.53
2022-10-11 11:24:00,,0820.7,5.00,0.00,29.0,27.4,00.0,37.8,30.8,10.4,0000.0,0011.95,0004.97,0004.53
2022-10-11 11:25:00,,0820.7,5.00,0.00,29.0,27.3,00.0,37.8,30.8,10.3,0000.0,0011.94,0004.96,0004.53
2022-10-11 11:26:00,,0820.8,5.01,0.00,29.0,27.3,00.0,37.8,30.8,10.3,0000.0,0012.44,0004.97,0004.53
2022-10-11 11:27:00,,0820.8,4.99,0.00,29.0,27.4,00.0,37.8,30.7,10.3,0000.0,0012.34,0004.97,0004.53
2022-10-11 11:28:00,,0820.8,5.00,0.00,29.0,27.4,00.0,37.8,30.8,10.4,0000.0,0012.35,0004.96,0004.54
2022-10-11 11:29:00,,0820.8,5.00,0.00,29.0,27.3,00.0,37.8,30.7,10.4,0000.0,0012.76,0004.99,0004.54
2022-10-11 11:30:00,,0820.8,4.99,0.00,29.0,27.4,00.0,37.8,30.8,10.4,0000.0,0013.04,0005.00,0004.53
2022-10-11 11:31:00,,0820.9,4.99,0.00,29.0,27.4,00.0,37.8,30.8,10.4,0000.0,0012.46,0005.03,0004.54
2022-10-11 11:32:00,,0820.7,5.01,0.00,29.0,27.4,00.0,37.8,30.8,10.3,0000.0,0012.40,0005.04,0004.53
2022-10-11 11:33:00,,0820.8,4.99,0.00,29.0,27.4,00.0,37.8,30.8,10.2,0000.0,0011.57,0005.04,0004.53
2022-10-11 11:34:00,,0820.6,5.00,0.00,29.0,27.4,00.0,37.8,30.8,10.2,0000.0,0011.08,0005.02,0004.52
2022-10-11 11:35:00,,0820.7,5.00,0.00,29.0,27.4,00.0,37.8,30.8,10.0,0000.0,0010.02,0005.04,0004.51
2022-10-11 11:36:00,,0820.7,5.01,0.00,29.0,27.3,00.0,37.8,30.8,10.0,0000.0,0010.16,0005.08,0004.51
2022-10-11 11:37:00,,0820.7,4.99,0.00,29.0,27.3,00.0,37.8,30.8,10.0,0000.0,0009.51,0005.07,0004.49
2022-10-11 11:38:00,,0820.8,5.00,0.00,29.0,27.3,00.0,37.8,30.7,10.0,0000.0,0009.81,0005.05,0004.48
2022-10-11 11:39:00,,0820.9,5.00,0.00,29.0,27.3,00.0,37.8,30.7,10.1,0000.0,0010.23,0005.03,0004.46
2022-10-11 11:40:00,,0820.9,5.00,0.00,29.0,27.3,00.0,37.8,30.7,10.3,0000.0,0010.36,0004.99,0004.44
2022-10-11 11:41:00,,0820.9,5.00,0.00,28.9,27.3,00.0,37.8,30.7,10.4,0000.0,0010.11,0004.99,0004.45
2022-10-11 11:42:00,,0820.9,4.99,0.00,28.9,27.3,00.0,37.8,30.7,10.4,0000.0,0010.65,0004.99,0004.45
2022-10-11 11:43:00,,0820.9,4.99,0.00,28.9,27.4,00.0,37.8,30.7,10.5,0000.0,0011.46,0004.99,0004.44
2022-10-11 11:44:00,,0820.9,5.00,0.00,28.9,27.4,00.0,37.8,30.8,10.5,0000.0,0011.67,0005.02,0004.44
2022-10-11 11:45:00,,0820.9,5.01,0.00,28.9,27.4,00.0,37.8,30.7,10.5,0000.0,0011.74,0005.02,0004.43
2022-10-11 11:46:00,,0821.0,4.99,0.00,28.9,27.4,00.0,37.8,30.8,10.4,0000.0,0011.69,0005.00,0004.44
2022-10-11 11:47:00,,0820.9,5.01,0.00,28.9,27.4,00.0,37.8,30.8,10.4,0000.0,0011.41,0004.93,0004.43
2022-10-11 11:48:00,,0821.0,5.01,0.00,28.9,27.4,00.0,37.8,30.7,10.1,0000.0,0011.76,0004.89,0004.43
2022-10-11 11:49:00,,0821.0,5.00,0.00,28.9,27.4,00.0,37.8,30.7,10.1,0000.0,0011.67,0004.92,0004.45
2022-10-11 11:50:00,,0821.0,5.00,0.00,28.9,27.4,00.0,37.8,30.7,10.2,0000.0,0011.75,0004.96,0004.45
2022-10-11 11:51:00,,0820.9,5.01,0.00,28.9,27.4,00.0,37.8,30.7,10.2,0000.0,0011.63,0004.98,0004.46
2022-10-11 11:52:00,,0821.0,4.99,0.00,28.9,27.4,00.0,37.8,30.7,10.1,0000.0,0011.23,0005.00,0004.46
2022-10-11 11:53:00,,0821.0,4.99,0.00,28.9,27.4,00.0,37.8,30.7,10.1,0000.0,0010.87,0005.01,0004.45
2022-10-11 11:54:00,,0820.9,5.00,0.00,28.9,27.4,00.0,37.8,30.7,10.0,0000.0,0009.88,0004.99,0004.45
2022-10-11 11:55:00,,0821.0,5.01,0.00,28.9,27.4,00.0,37.8,30.8,09.9,0000.0,0009.50,0004.93,0004.45
2022-10-11 11:56:00,,0821.0,5.01,0.00,28.9,27.4,00.0,37.7,30.7,10.0,0000.0,0009.49,0004.93,0004.44
2022-10-11 11:57:00,,0820.9,4.99,0.00,28.9,27.4,00.0,37.7,30.7,10.1,0000.0,0009.49,0004.93,0004.44
2022-10-11 11:58:00,,0820.9,4.99,0.00,28.9,27.4,00.0,37.7,30.7,10.1,0000.0,0009.49,0004.93,0004.43
2022-10-11 11:59:00,,0820.9,5.01,0.00,28.9,27.4,00.0,37.7,30.7,10.0,0000.0,0009.37,0004.94,0004.43
